This demonstration page uses our WeatherBlox Daily Observations layout. Learn more.

Left ArrowRight Arrow

34.74481, -87.66753

Hourly Observations for October 13, 2021

Temp ( °F °C ) Dew Point ( °F °C ) Humidity (%) Winds ( mph kmh ) Pressure ( in mb ) Visibility ( mi km ) Precip ( " mm )
12:26 am 00:26 Mostly Cloudy 73 22.8 69 20.6 87 87 SE 5 7 30.00 1016 9 14 0.00 0.00
12:53 am 00:53 Cloudy 73 22.8 69 20.6 87 87 SE 7 11 29.99 1016 9 14 0.00 0.00
1:53 am 01:53 Mostly Cloudy 73 22.8 68 20 84 84 SE 3 6 30.00 1016 10 16 0.00 0.00
2:53 am 02:53 Cloudy 74 23.3 68 20 82 82 SSE 6 9 29.99 1016 10 16 0.00 0.00
3:53 am 03:53 Cloudy 74 23.3 67 19.4 79 79 SSE 6 9 29.98 1015 10 16 0.00 0.00
4:53 am 04:53 Cloudy 74 23.3 66 18.9 76 76 S 5 7 29.99 1016 10 16 0.00 0.00
5:53 am 05:53 Cloudy 73 22.8 65 18.3 76 76 S 5 7 30.00 1016 10 16 0.00 0.00
6:53 am 06:53 Clear 71 21.7 65 18.3 81 81 SE 6 9 30.01 1016 10 16 0.00 0.00
7:53 am 07:53 Mostly Sunny 73 22.8 66 18.9 79 79 SE 7 11 30.01 1016 10 16 0.00 0.00
8:53 am 08:53 Mostly Sunny 77 25 66 18.9 69 69 S 5 7 30.02 1017 10 16 0.00 0.00
9:53 am 09:53 Sunny 79 26.1 66 18.9 65 65 S 10 17 30.02 1017 10 16 0.00 0.00
10:53 am 10:53 Sunny 81 27.2 66 18.9 61 61 SW 9 15 30.02 1017 10 16 0.00 0.00
11:53 am 11:53 Sunny 84 28.9 67 19.4 57 57 SSW 9 15 30.01 1016 10 16 0.00 0.00
12:53 pm 12:53 Mostly Sunny 86 30 66 18.9 51 51 SSW 8 13 30.00 1016 10 16 0.00 0.00
1:53 pm 13:53 Mostly Cloudy 87 30.6 65 18.3 48 48 S 8 13 29.97 1015 10 16 0.00 0.00
2:53 pm 14:53 Partly Cloudy 86 30 66 18.9 51 51 SSW 7 11 29.96 1015 10 16 0.00 0.00
3:53 pm 15:53 Mostly Sunny 86 30 65 18.3 49 49 S 10 17 29.95 1014 10 16 0.00 0.00
4:53 pm 16:53 Sunny 85 29.4 65 18.3 51 51 S 7 11 29.95 1014 10 16 0.00 0.00
5:53 pm 17:53 Sunny 82 27.8 65 18.3 56 56 S 7 11 29.94 1014 10 16 0.00 0.00
6:53 pm 18:53 Clear 77 25 66 18.9 69 69 SSE 5 7 29.95 1014 10 16 0.00 0.00
7:53 pm 19:53 Clear 75 23.9 67 19.4 76 76 SSE 5 7 29.97 1015 10 16 0.00 0.00
8:53 pm 20:53 Clear 73 22.8 66 18.9 79 79 SSE 6 9 29.98 1015 10 16 0.00 0.00
9:53 pm 21:53 Clear 71 21.7 65 18.3 81 81 SE 3 6 29.99 1016 10 16 0.00 0.00
10:53 pm 22:53 Clear 70 21.1 66 18.9 87 87 Calm 29.99 1016 10 16 0.00 0.00
11:53 pm 23:53 Clear 69 20.6 65 18.3 87 87 SE 3 6 29.98 1015 10 16 0.00 0.00

Powered by AerisWeather